Location: Unspecified
(40.7945°N, 0.0000°E)
Time: 14:40:09
(UTC+00:00)

A-11 Canister half - All Passes

Search period start: 23 January 2021 00:00
Search period end: 02 February 2021 00:00
Orbit: 1524 x 1684 km, 47.3° (Epoch: 22 January)

Date Brightness Start Highest point End Pass type
(mag) Time Alt. Az. Time Alt. Az. Time Alt. Az.
23 Jan - 12:45:27 10° S 12:52:52 28° SE 13:00:22 10° ENE daylight
23 Jan - 14:47:30 10° SW 14:56:50 81° SSE 15:06:26 10° ENE daylight
23 Jan - 16:53:02 10° W 17:02:22 61° N 17:12:02 10° ENE daylight
23 Jan - 18:58:55 10° WNW 19:08:31 69° NNE 19:18:25 10° E visible
23 Jan - 21:04:10 10° WNW 21:13:43 62° SW 21:23:33 10° SE visible
23 Jan - 23:11:15 10° W 23:17:26 19° SW 23:23:44 10° SSW visible
24 Jan - 12:24:05 10° S 12:31:17 26° SE 12:38:34 10° ENE daylight
24 Jan - 14:25:54 10° SW 14:35:11 78° SSE 14:44:44 10° ENE daylight
24 Jan - 16:31:20 10° W 16:40:40 62° N 16:50:18 10° ENE daylight
24 Jan - 18:37:16 10° WNW 18:46:48 67° NNE 18:56:41 10° E visible
24 Jan - 20:42:30 10° WNW 20:52:04 65° SW 21:01:56 10° SE visible
24 Jan - 22:49:20 10° W 22:55:51 20° SW 23:02:29 10° SSW visible
25 Jan - 12:02:45 10° S 12:09:43 24° SE 12:16:45 10° ENE daylight
25 Jan - 14:04:17 10° SW 14:13:32 75° SSE 14:23:03 10° ENE daylight
25 Jan - 16:09:39 10° W 16:18:57 63° N 16:28:34 10° ENE daylight
25 Jan - 18:15:36 10° WNW 18:25:06 66° NNE 18:34:56 10° E visible
25 Jan - 20:20:50 10° WNW 20:30:25 68° SW 20:40:18 10° SE visible
25 Jan - 22:27:27 10° W 22:34:15 21° SW 22:41:11 10° S visible
26 Jan - 11:41:26 10° S 11:48:10 23° SE 11:54:56 10° E daylight
26 Jan - 13:42:41 10° SW 13:51:54 72° SE 14:01:22 10° ENE daylight
26 Jan - 15:47:57 10° W 15:57:15 64° NNW 16:06:51 10° ENE daylight
26 Jan - 17:53:55 10° WNW 18:03:23 65° NNE 18:13:11 10° E visible
26 Jan - 19:59:10 10° WNW 20:08:45 70° SW 20:18:39 10° SE visible
26 Jan - 22:05:36 10° W 22:12:39 23° SW 22:19:51 10° S visible
27 Jan - 11:20:09 10° S 11:26:35 21° SE 11:33:04 10° E daylight
27 Jan - 13:21:06 10° SW 13:30:17 70° SE 13:39:41 10° ENE daylight
27 Jan - 15:26:16 10° W 15:35:33 64° NNW 15:45:08 10° ENE daylight
27 Jan - 17:32:15 10° WNW 17:41:41 64° NNE 17:51:25 10° E visible
27 Jan - 19:37:31 10° WNW 19:47:06 73° SW 19:57:00 10° SE visible
27 Jan - 21:43:47 10° W 21:51:04 24° SW 21:58:31 10° S visible
28 Jan - 10:58:53 10° SSE 11:05:02 20° SE 11:11:12 10° E daylight
28 Jan - 12:59:30 10° SW 13:08:39 67° SE 13:18:00 10° ENE daylight
28 Jan - 15:04:34 10° W 15:13:51 65° NNW 15:23:26 10° ENE daylight
28 Jan - 17:10:35 10° WNW 17:19:58 63° N 17:29:41 10° E daylight
28 Jan - 19:15:52 10° WNW 19:25:27 75° SSW 19:35:21 10° SE visible
28 Jan - 21:21:58 10° WNW 21:29:28 26° SW 21:37:08 10° S visible
29 Jan - 10:37:40 10° SSE 10:43:28 19° SE 10:49:17 10° E daylight
29 Jan - 12:37:55 10° SW 12:47:02 64° SE 12:56:18 10° ENE daylight
29 Jan - 14:42:53 10° W 14:52:10 67° NNW 15:01:43 10° ENE daylight
29 Jan - 16:48:54 10° WNW 16:58:16 62° N 17:07:56 10° E daylight
29 Jan - 18:54:12 10° WNW 19:03:47 78° SSW 19:13:41 10° SE visible
29 Jan - 21:00:11 10° WNW 21:07:52 27° SW 21:15:44 10° S visible
30 Jan - 10:16:29 10° SSE 10:21:55 17° SE 10:27:21 10° E daylight
30 Jan - 12:16:20 10° SW 12:25:25 62° SE 12:34:37 10° ENE daylight
30 Jan - 14:21:12 10° W 14:30:28 68° NNW 14:40:01 10° ENE daylight
30 Jan - 16:27:14 10° WNW 16:36:33 61° N 16:46:11 10° E daylight
30 Jan - 18:32:33 10° WNW 18:42:07 81° SSW 18:52:01 10° SE visible
30 Jan - 20:38:24 10° WNW 20:46:16 29° SW 20:54:19 10° S visible
31 Jan - 09:55:21 10° SSE 10:00:22 16° SE 10:05:22 10° E daylight
31 Jan - 11:54:47 10° SW 12:03:48 59° SE 12:12:56 10° ENE daylight
31 Jan - 13:59:30 10° W 14:08:47 69° NNW 14:18:18 10° ENE daylight
31 Jan - 16:05:33 10° WNW 16:14:51 61° N 16:24:26 10° E daylight
31 Jan - 18:10:54 10° WNW 18:20:28 83° SSW 18:30:20 10° SE visible
31 Jan - 20:16:39 10° WNW 20:24:40 31° SW 20:32:53 10° S visible
01 Feb - 09:34:17 10° SSE 09:38:49 15° ESE 09:43:20 10° E daylight
01 Feb - 11:33:13 10° SW 11:42:11 56° SE 11:51:15 10° ENE daylight
01 Feb - 13:37:49 10° WSW 13:47:06 70° NNW 13:56:36 10° ENE daylight
01 Feb - 15:43:52 10° WNW 15:53:08 60° N 16:02:41 10° E daylight
01 Feb - 17:49:15 10° WNW 17:58:47 86° SSW 18:08:39 10° ESE visible
01 Feb - 19:54:55 10° WNW 20:03:04 32° SW 20:11:26 10° S visible
